FW8373 Weather Reports


time (UTC)temp
F
wind
direction
speed
knots
gust
knots
rain 1hr
in
rain 24hr
in
rain mn
in
humidity
%
barometer
mb
20260508230738 53 293 0.0 1.7 0.00 0.00 0.00 38 1008.4
20260508225207 54 293 1.7 3.5 0.00 0.00 0.00 36 1008.1
20260508224659 54 293 0.0 3.5 0.00 0.00 0.00 36 1008.0
20260508224149 54 293 0.9 3.5 0.00 0.00 0.00 36 1008.1
20260508223637 54 293 1.7 3.5 0.00 0.00 0.00 36 1008.4
20260508223127 55 270 1.7 3.5 0.00 0.00 0.00 36 1007.9
20260508221558 55 270 0.9 3.5 0.00 0.00 0.00 34 1008.3
20260508221046 56 270 1.7 3.5 0.00 0.00 0.00 33 1008.1
20260508220536 56 270 1.7 3.5 0.00 0.00 0.00 32 1008.2
20260508220027 56 270 1.7 3.5 0.00 0.00 0.00 32 1007.9
20260508215516 56 248 1.7 5.2 0.00 0.00 0.00 31 1008.1
20260508215006 57 270 1.7 5.2 0.00 0.00 0.00 30 1008.0
20260508213945 57 270 3.5 7.0 0.00 0.00 0.00 29 1007.8
20260508213436 58 270 3.5 7.0 0.00 0.00 0.00 28 1007.6
20260508212926 58 270 3.5 7.0 0.00 0.00 0.00 28 1007.8
20260508212415 58 270 3.5 7.8 0.00 0.00 0.00 27 1007.6
20260508211905 59 248 5.2 7.8 0.00 0.00 0.00 26 1007.6
20260508211356 59 270 3.5 9.6 0.00 0.00 0.00 25 1007.4
20260508210844 59 270 2.6 12.2 0.00 0.00 0.00 25 1007.4
20260508210336 60 270 7.0 12.2 0.00 0.00 0.00 24 1007.5
20260508205825 60 270 6.1 12.2 0.00 0.00 0.00 23 1007.5
20260508205324 60 270 8.7 13.0 0.00 0.00 0.00 22 1007.5
20260508204804 61 270 7.0 13.0 0.00 0.00 0.00 22 1007.5
20260508204257 61 293 7.0 17.4 0.00 0.00 0.00 22 1007.3
20260508203745 61 248 7.0 17.4 0.00 0.00 0.00 22 1007.5
20260508203233 62 270 8.7 18.2 0.00 0.00 0.00 22 1007.2
20260508202724 62 293 9.6 18.2 0.00 0.00 0.00 22 1007.3
20260508202215 62 293 7.0 15.6 0.00 0.00 0.00 24 1007.2
20260508201703 62 293 3.5 14.8 0.00 0.00 0.00 25 1006.9
20260508200643 62 270 5.2 14.8 0.00 0.00 0.00 25 1006.9
20260508200133 62 248 6.1 14.8 0.00 0.00 0.00 25 1006.8
20260508195115 62 225 8.7 17.4 0.00 0.00 0.00 24 1007.0
20260508194602 62 270 8.7 17.4 0.00 0.00 0.00 25 1007.0
20260508194054 62 270 9.6 14.8 0.00 0.00 0.00 26 1007.1
20260508193542 62 225 5.2 14.8 0.00 0.00 0.00 27 1007.1
20260508193031 62 270 6.1 14.8 0.00 0.00 0.00 27 1007.1
20260508192521 62 270 7.0 14.8 0.00 0.00 0.00 27 1007.3
20260508192011 62 315 7.0 14.8 0.00 0.00 0.00 27 1007.2
20260508191501 62 248 7.0 13.9 0.00 0.00 0.00 27 1007.3
20260508190951 62 270 8.7 14.8 0.00 0.00 0.00 28 1007.2
20260508190441 62 293 9.6 15.6 0.00 0.00 0.00 28 1007.4
20260508185931 62 270 6.1 17.4 0.00 0.00 0.00 29 1007.3
20260508185423 62 270 8.7 17.4 0.00 0.00 0.00 29 1007.6
20260508184913 62 293 5.2 17.4 0.00 0.00 0.00 29 1007.8
20260508184417 61 248 9.6 17.4 0.00 0.00 0.00 30 1007.6
20260508183850 61 248 11.3 15.6 0.00 0.00 0.00 29 1007.8
20260508183340 61 293 7.8 15.6 0.00 0.00 0.00 31 1008.0
20260508182830 61 225 8.7 18.2 0.00 0.00 0.00 31 1008.0
20260508182325 61 248 7.0 18.2 0.00 0.00 0.00 31 1008.1
20260508181813 62 248 7.8 15.6 0.00 0.00 0.00 31 1008.0
20260508181301 61 270 9.6 14.8 0.00 0.00 0.00 30 1008.0
20260508180749 60 248 9.6 14.8 0.00 0.00 0.00 32 1008.1
20260508180242 61 270 6.1 17.4 0.00 0.00 0.00 33 1008.1
20260508175729 61 270 7.0 17.4 0.00 0.00 0.00 33 1008.2
20260508175219 60 248 8.7 19.1 0.00 0.00 0.00 32 1008.2
20260508174712 60 248 8.7 19.1 0.00 0.00 0.00 33 1008.3
20260508174201 60 225 7.0 17.4 0.00 0.00 0.00 33 1008.3
20260508172629 60 293 9.6 17.4 0.00 0.00 0.00 35 1008.1
20260508172118 60 270 7.0 17.4 0.00 0.00 0.00 35 1008.4
20260508171609 60 270 6.1 14.8 0.00 0.00 0.00 37 1008.5
20260508171105 60 270 3.5 14.8 0.00 0.00 0.00 36 1008.5
20260508170548 59 293 8.7 13.9 0.00 0.00 0.00 35 1008.6
20260508170039 60 248 5.2 13.9 0.00 0.00 0.00 36 1008.7
20260508165528 59 270 8.7 17.4 0.00 0.00 0.00 38 1008.9
20260508165018 60 293 7.8 17.4 0.00 0.00 0.00 37 1008.9
20260508164507 60 315 6.1 14.8 0.00 0.00 0.00 37 1009.0
20260508163957 59 270 6.1 14.8 0.00 0.00 0.00 38 1009.1
20260508163446 59 248 8.7 15.6 0.00 0.00 0.00 39 1009.2
20260508162938 58 270 5.2 15.6 0.00 0.00 0.00 39 1009.3
20260508162427 59 248 7.0 13.0 0.00 0.00 0.00 39 1009.3
20260508161916 58 248 7.0 14.8 0.00 0.00 0.00 40 1009.3
20260508161406 58 225 7.0 14.8 0.00 0.00 0.00 40 1009.4
20260508160856 58 225 5.2 14.8 0.00 0.00 0.00 40 1009.7
20260508160346 58 248 3.5 14.8 0.00 0.00 0.00 41 1009.5
20260508155835 58 248 7.8 13.0 0.00 0.00 0.00 40 1010.0
20260508155327 57 248 7.8 14.8 0.00 0.00 0.00 40 1010.0
20260508154815 57 293 7.8 17.4 0.00 0.00 0.00 41 1010.0
20260508154305 57 338 8.7 17.4 0.00 0.00 0.00 41 1010.4
20260508153246 57 293 5.2 17.4 0.00 0.00 0.00 42 1010.4
20260508152734 56 248 7.0 17.4 0.00 0.00 0.00 41 1010.5
20260508151714 56 248 7.0 13.9 0.00 0.00 0.00 43 1010.5
20260508151204 56 248 7.8 14.8 0.00 0.00 0.00 43 1010.8
20260508150654 56 270 7.0 14.8 0.00 0.00 0.00 43 1010.9
20260508150144 56 270 8.7 14.8 0.00 0.00 0.00 43 1010.9
20260508145635 56 270 9.6 14.8 0.00 0.00 0.00 43 1011.0
20260508145126 56 270 10.4 14.8 0.00 0.00 0.00 44 1011.0
20260508144616 56 293 5.2 17.4 0.00 0.00 0.00 44 1010.8
20260508144103 55 293 8.7 25.2 0.00 0.00 0.00 45 1011.0
20260508143555 55 248 10.4 25.2 0.00 0.00 0.00 45 1010.7
20260508143045 55 270 9.6 18.2 0.00 0.00 0.00 45 1010.9
20260508142535 54 270 9.6 18.2 0.00 0.00 0.00 45 1010.7
20260508142023 54 270 7.0 17.4 0.00 0.00 0.00 45 1010.7
20260508141514 54 270 9.6 17.4 0.00 0.00 0.00 46 1010.7
20260508141003 54 248 7.0 15.6 0.00 0.00 0.00 45 1010.8
20260508140454 55 293 7.0 15.6 0.00 0.00 0.00 45 1010.9
20260508135942 54 248 9.6 15.6 0.00 0.00 0.00 46 1010.7
20260508135437 53 270 9.6 15.6 0.00 0.00 0.00 46 1010.8
20260508134922 54 225 7.0 14.8 0.00 0.00 0.00 46 1011.0
20260508134412 53 293 7.8 14.8 0.00 0.00 0.00 46 1010.8
20260508133902 53 270 9.6 15.6 0.00 0.00 0.00 46 1010.9
20260508132851 53 293 8.7 14.8 0.00 0.00 0.00 49 1011.0
20260508131821 52 270 6.1 12.2 0.00 0.00 0.00 49 1010.8
20260508131313 52 248 7.0 13.9 0.00 0.00 0.00 49 1010.7
20260508130803 52 248 6.1 14.8 0.00 0.00 0.00 50 1010.7
20260508130251 51 248 9.6 14.8 0.00 0.00 0.00 50 1010.8
20260508125740 51 293 8.7 14.8 0.00 0.00 0.00 51 1010.7
20260508125230 51 225 7.8 15.6 0.00 0.00 0.00 51 1010.6
20260508124721 51 270 7.0 15.6 0.00 0.00 0.00 51 1010.6
20260508124211 51 293 5.2 12.2 0.00 0.00 0.00 52 1010.7
20260508123700 50 270 8.7 12.2 0.00 0.00 0.00 52 1010.5
20260508123150 50 248 7.8 13.9 0.00 0.00 0.00 53 1010.5
20260508122642 50 248 7.0 13.9 0.00 0.00 0.00 53 1010.3
20260508122131 49 270 7.0 13.0 0.00 0.00 0.00 54 1010.5
20260508121621 49 270 6.1 14.8 0.00 0.00 0.00 56 1010.5
20260508121109 49 293 5.2 14.8 0.00 0.00 0.00 57 1010.6
20260508120050 48 293 6.1 11.3 0.00 0.00 0.00 59 1010.3
20260508115539 47 293 7.0 11.3 0.00 0.00 0.00 60 1010.4
20260508115029 47 248 7.0 9.6 0.00 0.00 0.00 61 1010.2
20260508114519 47 270 4.3 11.3 0.00 0.00 0.00 61 1010.1
20260508114008 47 315 5.2 11.3 0.00 0.00 0.00 62 1010.2
20260508112948 46 315 3.5 9.6 0.00 0.00 0.00 63 1009.9
20260508112438 46 270 4.3 12.2 0.00 0.00 0.00 63 1009.9
20260508111929 46 293 2.6 12.2 0.00 0.00 0.00 63 1009.8
20260508111419 46 293 3.5 11.3 0.00 0.00 0.00 62 1009.7
20260508110907 47 293 6.1 9.6 0.00 0.00 0.00 60 1009.7
20260508105849 47 248 3.5 11.3 0.00 0.00 0.00 58 1009.4
20260508105339 47 180 4.3 11.3 0.00 0.00 0.00 58 1009.3
20260508104829 47 180 3.5 11.3 0.00 0.00 0.00 57 1009.2
20260508103807 47 180 3.5 11.3 0.00 0.00 0.00 56 1009.1
20260508103257 48 180 3.5 9.6 0.00 0.00 0.00 55 1008.7
20260508101727 48 180 5.2 14.8 0.00 0.00 0.00 54 1008.3
20260508100706 49 180 6.1 15.6 0.00 0.00 0.00 53 1008.3
20260508100201 49 180 7.0 13.0 0.00 0.00 0.00 53 1008.3
20260508095646 49 180 7.0 17.4 0.00 0.00 0.00 53 1008.1
20260508095139 49 180 7.8 17.4 0.00 0.00 0.00 53 1008.3
20260508094630 48 180 7.0 15.6 0.00 0.00 0.00 54 1008.4
20260508094116 48 180 7.0 17.4 0.00 0.00 0.00 54 1008.1
20260508093057 48 180 7.0 17.4 0.00 0.00 0.00 56 1008.2
20260508092547 48 180 7.0 14.8 0.00 0.00 0.00 57 1008.1
20260508091526 48 180 7.0 18.2 0.00 0.00 0.00 59 1007.8
20260508091020 48 180 4.3 14.8 0.00 0.00 0.00 60 1007.7
20260508085954 47 180 9.6 15.6 0.00 0.00 0.00 61 1007.5
20260508085445 47 180 6.1 13.0 0.00 0.00 0.00 62 1007.3
20260508084940 47 180 5.2 11.3 0.00 0.00 0.00 63 1007.3
20260508084423 47 180 4.3 12.2 0.00 0.00 0.00 64 1006.9
20260508083913 47 180 5.2 13.9 0.00 0.00 0.00 64 1007.1
20260508083405 47 180 5.2 13.9 0.00 0.00 0.00 64 1007.2
20260508082854 47 180 5.2 12.2 0.00 0.00 0.00 64 1006.9
20260508080302 48 180 4.3 9.6 0.00 0.00 0.00 63 1007.0
20260508075752 48 180 2.6 9.6 0.00 0.00 0.00 63 1007.1
20260508075242 48 180 3.5 9.6 0.00 0.00 0.00 62 1007.1
20260508074732 48 180 3.5 9.6 0.00 0.00 0.00 62 1006.9
20260508073713 48 180 6.1 13.9 0.00 0.00 0.00 62 1007.0
20260508072652 49 180 6.1 11.3 0.00 0.00 0.00 62 1007.0
20260508072141 49 180 4.3 11.3 0.00 0.00 0.00 63 1007.1
20260508071631 48 180 6.1 11.3 0.00 0.00 0.00 64 1007.0
20260508070611 48 180 3.5 12.2 0.00 0.00 0.00 65 1007.1
20260508065552 49 180 5.2 9.6 0.00 0.00 0.00 64 1006.9
20260508064531 49 180 5.2 11.3 0.00 0.00 0.00 63 1007.1
20260508064022 49 180 4.3 13.0 0.00 0.00 0.00 62 1007.0
20260508063511 49 180 5.2 13.0 0.00 0.00 0.00 61 1006.8
20260508062451 49 180 3.5 9.6 0.00 0.00 0.00 62 1006.9
20260508061940 50 180 6.1 11.3 0.00 0.00 0.00 62 1006.9
20260508061431 50 180 4.3 11.3 0.00 0.00 0.00 61 1006.8
20260508060922 50 180 6.1 11.3 0.00 0.00 0.00 61 1006.7
20260508060414 50 180 6.1 0.0 0.00 0.00 0.00 61 1007.1
20260508060201 50 180 6.1 0.0 0.00 0.00 0.00 61 1007.1
20260508055611 50 180 2.6 7.8 0.00 0.21 0.00 63 1007.0
20260508055102 50 180 3.5 7.8 0.00 0.21 0.00 62 1007.2
20260508054551 50 180 3.5 7.0 0.00 0.21 0.00 63 1007.2
20260508054041 49 180 3.5 7.0 0.00 0.21 0.00 65 1007.4
20260508053022 49 180 5.2 7.8 0.00 0.21 0.00 66 1007.3
20260508052510 49 180 2.6 7.0 0.00 0.21 0.00 68 1007.6
20260508051449 49 180 3.5 9.6 0.00 0.21 0.00 69 1007.4
20260508050939 49 180 2.6 7.8 0.00 0.21 0.00 70 1007.3
20260508050429 49 180 3.5 7.8 0.00 0.21 0.00 69 1007.4
20260508045919 49 180 2.6 7.8 0.00 0.21 0.00 70 1007.6
20260508045410 49 180 1.7 7.0 0.00 0.21 0.00 71 1007.4
20260508044350 49 180 3.5 9.6 0.00 0.21 0.00 71 1007.3
20260508043838 49 180 3.5 9.6 0.00 0.21 0.00 70 1007.2
20260508043329 49 180 3.5 7.8 0.00 0.21 0.00 70 1006.8
20260508041807 49 180 3.5 7.0 0.00 0.21 0.00 71 1006.9
20260508041248 50 180 1.7 6.1 0.00 0.21 0.00 69 1006.7
20260508040738 51 180 1.7 5.2 0.00 0.21 0.00 67 1006.5
20260508040229 51 180 2.6 6.1 0.00 0.21 0.00 66 1006.2
20260508035718 52 180 2.6 9.6 0.00 0.21 0.00 63 1005.8
20260508034659 52 180 1.7 9.6 0.00 0.21 0.00 63 1005.4
20260508034147 51 180 4.3 9.6 0.00 0.21 0.00 65 1005.7
20260508033644 51 180 3.5 7.8 0.00 0.21 0.00 66 1005.9
20260508032618 51 180 3.5 7.8 0.00 0.21 0.00 67 1006.1
20260508032106 51 180 4.3 7.8 0.00 0.21 0.00 66 1006.3
20260508031557 51 180 2.6 7.8 0.00 0.21 0.00 65 1006.1
20260508031045 51 180 3.5 7.0 0.00 0.21 0.00 65 1005.9
20260508030536 52 180 3.5 7.8 0.00 0.21 0.00 64 1006.2
20260508030027 52 180 3.5 7.8 0.00 0.21 0.00 63 1006.1
20260508025516 53 180 3.5 7.8 0.00 0.21 0.21 63 1006.1
20260508025005 53 180 3.5 7.8 0.00 0.21 0.21 62 1006.2
20260508024455 53 180 3.5 7.0 0.00 0.21 0.21 62 1006.2
20260508023947 53 180 3.5 9.6 0.00 0.21 0.21 62 1006.4
20260508022928 53 180 3.5 9.6 0.00 0.21 0.21 61 1006.4
20260508021355 54 203 2.6 7.0 0.00 0.21 0.21 61 1006.4
20260508020846 53 248 4.3 9.6 0.00 0.21 0.21 62 1006.4
20260508020334 54 225 3.5 9.6 0.00 0.21 0.21 61 1006.5
20260508015314 54 225 3.5 9.6 0.00 0.21 0.21 63 1006.4
20260508014805 53 225 5.2 7.8 0.00 0.21 0.21 65 1006.3
20260508014254 53 270 3.5 7.8 0.00 0.21 0.21 67 1006.3
20260508013747 53 270 3.5 6.1 0.00 0.21 0.21 67 1006.1
20260508013233 53 248 3.5 6.1 0.00 0.21 0.21 67 1006.1
20260508012726 53 270 3.5 11.3 0.00 0.21 0.21 68 1006.1
20260508012214 53 270 3.5 11.3 0.00 0.21 0.21 68 1005.9
20260508011703 53 248 2.6 7.8 0.00 0.21 0.21 70 1005.7
20260508011154 53 248 3.5 7.8 0.00 0.21 0.21 72 1005.6
20260508010133 53 293 3.5 9.6 0.00 0.21 0.21 72 1005.8
20260508005112 54 293 3.5 7.0 0.00 0.21 0.21 70 1006.0
20260508004602 54 270 1.7 6.1 0.00 0.21 0.21 69 1005.8
20260508003033 55 270 3.5 7.0 0.00 0.21 0.21 69 1005.5
20260508002521 54 270 3.5 6.1 0.00 0.21 0.21 70 1005.5
20260508002014 55 248 3.5 6.1 0.00 0.21 0.21 70 1005.5
20260508001502 54 270 1.7 6.1 0.00 0.21 0.21 72 1005.5
20260508000952 55 248 2.6 3.5 0.00 0.21 0.21 72 1005.4
20260508000443 55 270 1.7 3.5 0.00 0.21 0.21 72 1005.5
20260507235931 55 270 1.7 3.5 0.00 0.21 0.21 72 1005.2
20260507235420 55 270 0.9 3.5 0.00 0.21 0.21 71 1005.4
20260507234400 55 270 1.7 3.5 0.00 0.21 0.21 72 1005.4
20260507233850 55 248 1.7 3.5 0.00 0.21 0.21 72 1005.4
20260507232322 56 270 1.7 5.2 0.00 0.21 0.21 68 1005.5
20260507231809 56 248 1.7 5.2 0.00 0.21 0.21 68 1005.6